Wheeler AAF, HI

3:42 AM HST on May 30, 2017 (GMT -1000)
Wheeler Army Air Field

Weather History for PHHI - November, 2013

Change the Weather History Date:

Friday, November 15, 2013

  Actual Average Record
Temperature  
Mean Temperature 74 °F -  
Max Temperature 80 °F 76 °F 81 °F (2006)
Min Temperature 69 °F 65 °F 62 °F (1999)
Cooling Degree Days 10    
Growing Degree Days 24 (Base 50)    
Moisture  
Dew Point 69 °F    
Average Humidity 83    
Maximum Humidity 95    
Minimum Humidity 65    
Precipitation  
Precipitation 0.03 in - - ()
Sea Level Pressure  
Sea Level Pressure 30.01 in    
Wind  
Wind Speed 4 mph (ESE)    
Max Wind Speed 13 mph    
Max Gust Speed -    
Visibility 10 miles    
Events Rain    
Averages and records for this station are not official NWS values.
T = Trace of Precipitation, MM = Missing Value Source: NWS Daily Summary

Daily Weather History Graph

Daily Weather History Graph

Search for Another Location

Airport or City:

Trip Planner

Search our weather history database for the weather conditions in past years. The results will help you decide how hot, cold, wet, or windy it might be!

Date:

Astronomy

Nov. 15, 2013 Rise Set
Actual Time 6:43 AM HST 5:49 PM HST
Civil Twilight 6:20 AM HST 6:13 PM HST
Nautical Twilight 5:53 AM HST 6:40 PM HST
Astronomical Twilight 5:26 AM HST 7:07 PM HST
Moon 4:45 PM HST (11/15) 5:02 AM HST (11/15)
Length of Visible Light 11h 53m
Length of Day
11h 06m
Waxing Gibbous, 97% of the Moon is Illuminated
Nov 15
Waxing Gibbous
Nov 17
Full
Nov 25
Last Quarter
Dec 2
New
Dec 9
First Quarter

Hourly Weather History & Observations

Time (HST) Temp. Heat Index Dew Point Humidity Pressure Visibility Wind Dir Wind Speed Gust Speed Precip Events Conditions
12:08 AM 71.6 °F - 68.0 °F 88% 30.02 in 10.0 mi SSE 3.5 mph - N/A Rain Light Rain
12:23 AM 71.6 °F - 68.0 °F 88% 30.02 in 10.0 mi South 3.5 mph - N/A   Light Drizzle
12:31 AM 71.6 °F - 68.0 °F 88% 30.02 in 10.0 mi South 2.3 mph - N/A   Mostly Cloudy
12:41 AM 71.6 °F - 68.0 °F 88% 30.02 in 10.0 mi South 3.5 mph - N/A   Scattered Clouds
12:58 AM 71.6 °F - 68.0 °F 88% 30.00 in 10.0 mi SSE 3.5 mph - 0.01 in   Mostly Cloudy
1:08 AM 71.6 °F - 68.0 °F 88% 30.02 in 10.0 mi SSE 3.5 mph - N/A   Scattered Clouds
1:13 AM 71.6 °F - 68.0 °F 88% 30.02 in 10.0 mi SSE 2.3 mph - N/A   Mostly Cloudy
1:18 AM 71.6 °F - 68.0 °F 88% 30.02 in 10.0 mi South 3.5 mph - N/A   Mostly Cloudy
1:33 AM 71.6 °F - 68.0 °F 88% 30.02 in 10.0 mi SSE 3.5 mph - N/A   Mostly Cloudy
1:58 AM 70.7 °F - 68.4 °F 92% 29.99 in 10.0 mi Variable 2.3 mph - N/A   Scattered Clouds
2:15 AM 71.6 °F - 68.0 °F 88% 30.01 in 10.0 mi SSW 2.3 mph - N/A Rain Light Rain
2:55 AM 69.8 °F - 68.0 °F 94% 30.00 in 10.0 mi Variable 1.2 mph - N/A   Mostly Cloudy
2:58 AM 70.7 °F - 68.5 °F 93% 29.98 in 10.0 mi Variable 1.2 mph - 0.01 in   Mostly Cloudy
3:58 AM 70.2 °F - 68.2 °F 93% 29.96 in 10.0 mi ESE 3.5 mph - N/A   Mostly Cloudy
4:58 AM 70.2 °F - 68.4 °F 94% 29.96 in 10.0 mi North 1.2 mph - N/A   Scattered Clouds
5:58 AM 70.0 °F - 68.4 °F 95% 30.00 in 10.0 mi NNW 5.8 mph - N/A   Overcast
6:58 AM 70.7 °F - 68.5 °F 93% 30.02 in 10.0 mi North 3.5 mph - N/A   Partly Cloudy
7:58 AM 71.4 °F - 69.3 °F 93% 30.02 in 10.0 mi WNW 5.8 mph - N/A   Mostly Cloudy
8:58 AM 73.8 °F - 70.2 °F 88% 30.04 in 10.0 mi SSW 2.3 mph - N/A   Clear
9:58 AM 75.6 °F - 70.5 °F 84% 30.04 in 10.0 mi Variable 4.6 mph - N/A   Clear
10:58 AM 78.4 °F - 70.9 °F 77% 30.03 in 10.0 mi Variable 3.5 mph - N/A   Partly Cloudy
11:28 AM 78.8 °F - 69.8 °F 74% 30.06 in 10.0 mi East 9.2 mph - N/A   Mostly Cloudy
11:53 AM 80.6 °F 83.9 °F 69.8 °F 70% 30.06 in 10.0 mi ENE 9.2 mph - N/A   Mostly Cloudy
11:58 AM 80.2 °F 83.5 °F 70.2 °F 71% 30.03 in 10.0 mi East 10.4 mph - N/A   Scattered Clouds
12:58 PM 80.1 °F 83.0 °F 69.6 °F 70% 29.99 in 10.0 mi East 12.7 mph - 0.01 in   Mostly Cloudy
1:58 PM 80.8 °F 83.8 °F 69.1 °F 67% 29.97 in 10.0 mi East 9.2 mph - N/A   Partly Cloudy
2:58 PM 80.4 °F 83.4 °F 69.1 °F 68% 29.97 in 10.0 mi ESE 4.6 mph - N/A   Partly Cloudy
3:58 PM 79.7 °F - 66.9 °F 65% 29.96 in 10.0 mi ESE 5.8 mph - N/A   Clear
4:53 PM 78.8 °F - 68.0 °F 69% 30.02 in 10.0 mi SE 4.6 mph - N/A   Mostly Cloudy
4:58 PM 78.1 °F - 68.9 °F 73% 29.98 in 10.0 mi ESE 4.6 mph - N/A   Mostly Cloudy
5:58 PM 77.2 °F - 68.7 °F 75% 30.01 in 10.0 mi ENE 5.8 mph - N/A   Overcast
6:38 PM 77.0 °F - 68.0 °F 74% 30.03 in 10.0 mi East 5.8 mph - N/A   Mostly Cloudy
6:58 PM 75.9 °F - 68.0 °F 76% 30.01 in 10.0 mi Variable 5.8 mph - N/A   Partly Cloudy
7:58 PM 74.7 °F - 68.7 °F 82% 30.04 in 10.0 mi NW 2.3 mph - N/A   Partly Cloudy
8:58 PM 72.5 °F - 68.2 °F 86% 30.03 in 10.0 mi WNW 4.6 mph - N/A   Clear
9:58 PM 72.9 °F - 68.5 °F 86% 30.04 in 10.0 mi North 1.2 mph - N/A   Clear
10:58 PM 70.9 °F - 68.2 °F 91% 30.05 in 10.0 mi Variable 2.3 mph - N/A   Clear
11:58 PM 69.1 °F - 66.6 °F 92% 30.03 in 10.0 mi NNW 5.8 mph - N/A   Clear